FW3030 Weather Reports


Display with metric or nautical units.
time (UTC)temp
F
wind
direction
speed
MPH
gust
MPH
rain 1hr
in
rain 24hr
in
rain mn
in
humidity
%
barometer
mb
20260903133113 70 0 1.0 6.0 0.00 0.00 0.00 83 1010.6
20260903131611 68 56 0.0 2.0 0.00 0.00 0.00 85 1010.9
20260903124615 67 92 0.0 4.0 0.00 0.00 0.00 84 1010.9
20260903123104 67 64 1.0 4.0 0.00 0.00 0.00 84 1010.9
20260903121602 67 0 0.0 2.0 0.00 0.00 0.00 84 1010.8
20260903120106 67 78 2.0 5.0 0.00 0.00 0.00 84 1010.7
20260903114607 67 0 0.0 3.0 0.00 0.00 0.00 83 1010.8
20260903113106 67 34 0.0 2.0 0.00 0.00 0.00 83 1010.8
20260903111604 67 0 0.0 3.0 0.00 0.00 0.00 82 1011.0
20260903110105 67 68 1.0 3.0 0.00 0.00 0.00 82 1010.8
20260903104603 67 0 0.0 4.0 0.00 0.00 0.00 81 1010.9
20260903103102 67 0 0.0 2.0 0.00 0.00 0.00 81 1011.1
20260903101603 68 45 0.0 3.0 0.00 0.00 0.00 80 1010.7
20260903100106 68 0 0.0 3.0 0.00 0.00 0.00 80 1010.7
20260903094655 68 69 0.0 3.0 0.00 0.00 0.00 79 1010.7
20260903093105 68 0 0.0 2.0 0.00 0.00 0.00 79 1010.7
20260903091607 68 0 1.0 4.0 0.00 0.00 0.00 78 1010.5
20260903090105 68 0 0.0 2.0 0.00 0.00 0.00 77 1010.6
20260903084605 69 0 0.0 2.0 0.00 0.00 0.00 77 1010.9
20260903083108 69 0 0.0 3.0 0.00 0.00 0.00 76 1010.9
20260903081619 69 0 0.0 4.0 0.00 0.00 0.00 76 1010.9
20260903080104 69 73 0.0 3.0 0.00 0.00 0.00 76 1010.9
20260903074611 69 0 0.0 2.0 0.00 0.00 0.00 76 1011.1
20260903073108 69 0 0.0 2.0 0.00 0.00 0.00 76 1010.9
20260903071601 69 0 0.0 3.0 0.00 0.00 0.00 75 1011.1
20260903070107 69 91 0.0 3.0 0.00 0.00 0.00 75 1011.2
20260903064609 69 88 1.0 3.0 0.00 0.00 0.00 75 1011.3
20260903063105 69 0 1.0 3.0 0.00 0.00 0.00 75 1011.4
20260903061605 70 42 0.0 2.0 0.00 0.00 0.00 74 1011.5
20260903060109 70 32 0.0 3.0 0.00 0.00 0.00 74 1011.5
20260903054623 70 0 0.0 3.0 0.00 0.00 0.00 74 1011.6
20260903053108 70 35 0.0 2.0 0.00 0.00 0.00 74 1011.6
20260903051605 70 41 0.0 2.0 0.00 0.00 0.00 73 1011.7
20260903050110 71 0 0.0 2.0 0.00 0.00 0.00 73 1011.9
20260903044603 71 0 0.0 2.0 0.00 0.00 0.00 72 1012.0
20260903043100 71 41 0.0 1.0 0.00 0.00 0.00 71 1012.0
20260903041614 72 0 0.0 1.0 0.00 0.00 0.00 71 1012.2
20260903040126 72 0 0.0 2.0 0.00 0.00 0.00 71 1012.2
20260903034604 72 0 0.0 3.0 0.00 0.00 0.00 71 1012.0
20260903033058 73 0 1.0 3.0 0.00 0.00 0.00 71 1012.1
20260903031605 73 36 1.0 3.0 0.00 0.00 0.00 69 1012.2
20260903030106 74 36 0.0 2.0 0.00 0.00 0.00 68 1012.1
20260903024607 74 11 0.0 2.0 0.00 0.00 0.00 67 1012.3
20260903023104 75 9 0.0 2.0 0.00 0.00 0.00 66 1012.2
20260903021603 75 0 0.0 2.0 0.00 0.00 0.00 64 1012.1
20260903020106 76 42 0.0 2.0 0.00 0.00 0.00 64 1012.0
20260903014604 76 42 0.0 2.0 0.00 0.00 0.00 64 1011.9
20260903013106 77 42 0.0 2.0 0.00 0.00 0.00 62 1011.9
20260903011607 78 47 0.0 2.0 0.00 0.00 0.00 61 1011.7
20260903010110 79 0 0.0 2.0 0.00 0.00 0.00 59 1011.6
20260903004602 80 0 0.0 2.0 0.00 0.00 0.00 58 1011.5
20260903003101 81 0 0.0 2.0 0.00 0.00 0.00 56 1011.5
20260903001608 82 49 0.0 3.0 0.00 0.00 0.00 55 1011.4
20260903000104 83 0 1.0 3.0 0.00 0.00 0.00 53 1011.3
20260902234605 84 27 0.0 5.0 0.00 0.00 0.00 51 1011.4
20260902233108 85 39 1.0 3.0 0.00 0.00 0.00 49 1011.3
20260902231602 86 52 1.0 4.0 0.00 0.00 0.00 50 1011.4
20260902230124 86 42 1.0 5.0 0.00 0.00 0.00 50 1011.4
20260902224604 86 40 1.0 6.0 0.00 0.00 0.00 50 1011.2
20260902223102 86 0 1.0 5.0 0.00 0.00 0.00 48 1011.3
20260902221610 88 63 1.0 4.0 0.00 0.00 0.00 47 1011.5
20260902220110 87 77 1.0 7.0 0.00 0.00 0.00 45 1011.7
20260902214633 88 44 2.0 4.0 0.00 0.00 0.00 46 1011.7
20260902213103 88 42 2.0 5.0 0.00 0.00 0.00 44 1011.7
20260902211606 88 85 1.0 4.0 0.00 0.00 0.00 47 1011.9
20260902210135 88 28 1.0 5.0 0.00 0.00 0.00 44 1011.9
20260902204603 88 0 1.0 4.0 0.00 0.00 0.00 44 1012.0
20260902203106 88 45 1.0 4.0 0.00 0.00 0.00 43 1012.1
20260902201619 88 0 1.0 5.0 0.00 0.00 0.00 43 1012.0
20260902200112 87 0 1.0 5.0 0.00 0.00 0.00 46 1012.3
20260902194603 87 29 2.0 7.0 0.00 0.00 0.00 42 1012.4
20260902193120 86 40 1.0 4.0 0.00 0.00 0.00 44 1012.7
20260902191604 86 0 0.0 5.0 0.00 0.00 0.00 47 1012.8
20260902190127 86 25 1.0 4.0 0.00 0.00 0.00 45 1012.8
20260902184619 86 17 2.0 4.0 0.00 0.00 0.00 45 1013.0
20260902183122 85 149 1.0 5.0 0.00 0.00 0.00 47 1013.0
20260902181624 84 66 1.0 4.0 0.00 0.00 0.00 46 1013.4
20260902180113 84 42 2.0 5.0 0.00 0.00 0.00 46 1013.2
20260902174605 83 26 0.0 4.0 0.00 0.00 0.00 46 1013.5
20260902173102 83 38 1.0 4.0 0.00 0.00 0.00 50 1013.8
20260902171620 81 43 1.0 3.0 0.00 0.00 0.00 54 1013.8
20260902170103 81 0 0.0 6.0 0.00 0.00 0.00 54 1013.6
20260902164609 81 0 1.0 6.0 0.00 0.00 0.00 55 1013.6
20260902163106 80 0 1.0 4.0 0.00 0.00 0.00 57 1013.7
20260902161605 78 84 1.0 3.0 0.00 0.00 0.00 62 1013.6
20260902160105 76 43 1.0 3.0 0.00 0.00 0.00 65 1013.7
20260902154604 74 5 0.0 2.0 0.00 0.00 0.00 70 1013.6
20260902153104 73 0 0.0 2.0 0.00 0.00 0.00 70 1013.9
20260902151603 73 0 0.0 2.0 0.00 0.00 0.00 72 1013.9
20260902144606 72 69 0.0 2.0 0.00 0.00 0.00 74 1013.7
20260902143108 71 0 0.0 2.0 0.00 0.00 0.00 77 1013.5
20260902141604 70 0 0.0 1.0 0.00 0.00 0.00 78 1013.6
20260902140111 69 69 0.0 2.0 0.00 0.00 0.00 80 1013.4
20260902134621 68 0 0.0 2.0 0.00 0.00 0.00 84 1013.6